SVA823 WIII-OEJN

Flight info

Callsign SVA823
Flight time N/A
Altitude 32000
Route RIMTI M766 ODIRU/N0501F340 M766 KAT P570 TVM UL425 ODOLI/N0493F360 UL425 ASPUX L425 GOBRO DCT AMBIT L425 BOSUT
Aircraft B77W/H-SDE1E2E3FGHIJ2J3J4J5M1RWXY/LB1D1

Departure

Time 2026-04-28 16:37
Airport Soekarno-Hatta International Airport (WIII)

Arrival

Time N/A
Airport King Abdulaziz International Airport (OEJN)
Time Latitude Longitude Altitude Speed Heading
2026-04-28 16:17 -6.11833 106.65715 43 ft 0 kts 68°
2026-04-28 16:30 -6.11835 106.65710 41 ft 4 kts 68°
2026-04-28 16:30 -6.11845 106.65685 39 ft 3 kts 68°
2026-04-28 16:31 -6.11853 106.65668 40 ft 4 kts 37°
2026-04-28 16:31 -6.11873 106.65664 38 ft 3 kts 338°
2026-04-28 16:31 -6.11897 106.65674 40 ft 3 kts 338°
2026-04-28 16:31 -6.11900 106.65676 40 ft 0 kts 338°
2026-04-28 16:33 -6.11868 106.65663 37 ft 12 kts 338°
2026-04-28 16:33 -6.11741 106.65611 43 ft 23 kts 337°
2026-04-28 16:34 -6.11603 106.65610 43 ft 19 kts 59°
2026-04-28 16:34 -6.11552 106.65735 43 ft 19 kts 68°
2026-04-28 16:34 -6.11505 106.65863 43 ft 22 kts 69°
2026-04-28 16:34 -6.11444 106.66023 43 ft 25 kts 68°
2026-04-28 16:35 -6.11378 106.66186 43 ft 25 kts 67°
2026-04-28 16:35 -6.11311 106.66351 43 ft 25 kts 68°
2026-04-28 16:35 -6.11245 106.66515 43 ft 25 kts 68°
2026-04-28 16:35 -6.11179 106.66679 43 ft 25 kts 68°
2026-04-28 16:36 -6.11091 106.66805 43 ft 20 kts
2026-04-28 16:36 -6.10974 106.66751 43 ft 20 kts 291°
2026-04-28 16:36 -6.11010 106.66617 44 ft 26 kts 248°
2026-04-28 16:36 -6.11166 106.66222 45 ft 98 kts 248°
2026-04-28 16:37 -6.11503 106.65384 44 ft 162 kts 248°
2026-04-28 16:37 -6.11997 106.64183 162 ft 199 kts 247°
2026-04-28 16:37 -6.12528 106.62900 736 ft 201 kts 247°
2026-04-28 16:38 -6.12975 106.60166 1806 ft 213 kts 292°
2026-04-28 16:38 -6.12105 106.58894 1956 ft 232 kts 307°
2026-04-28 16:38 -6.11167 106.57474 2215 ft 250 kts 298°
2026-04-28 16:38 -6.10398 106.55865 2795 ft 259 kts 291°
2026-04-28 16:39 -6.09760 106.54161 3504 ft 263 kts 288°
2026-04-28 16:39 -6.09187 106.52405 4236 ft 265 kts 287°
2026-04-28 16:39 -6.08637 106.50631 4956 ft 268 kts 287°
2026-04-28 16:39 -6.07993 106.48877 5576 ft 270 kts 302°
2026-04-28 16:40 -6.06644 106.47561 6097 ft 274 kts 327°
2026-04-28 16:40 -6.05004 106.46548 6705 ft 279 kts 328°
2026-04-28 16:40 -6.03353 106.45522 7398 ft 280 kts 328°
2026-04-28 16:40 -6.01693 106.44489 8088 ft 282 kts 328°
2026-04-28 16:41 -6.00009 106.43442 8750 ft 285 kts 327°
2026-04-28 16:41 -5.98337 106.42400 9362 ft 288 kts 327°
2026-04-28 16:41 -5.96628 106.41334 9991 ft 291 kts 327°
2026-04-28 16:41 -5.94897 106.40253 10530 ft 298 kts 327°
2026-04-28 16:42 -5.93069 106.39109 10699 ft 320 kts 327°
2026-04-28 16:42 -5.91115 106.37885 10885 ft 341 kts 327°
2026-04-28 16:42 -5.89038 106.36585 11073 ft 363 kts 327°
2026-04-28 16:42 -5.86849 106.35215 11502 ft 376 kts 327°
2026-04-28 16:43 -5.84609 106.33813 12108 ft 384 kts 327°
2026-04-28 16:43 -5.82326 106.32383 12879 ft 387 kts 327°
2026-04-28 16:43 -5.80031 106.30947 13667 ft 391 kts 327°
2026-04-28 16:43 -5.77707 106.29492 14414 ft 395 kts 328°
2026-04-28 16:44 -5.75379 106.28021 15104 ft 396 kts 325°
2026-04-28 16:44 -5.73361 106.26123 15545 ft 404 kts 304°
2026-04-28 16:44 -5.72077 106.23657 16141 ft 404 kts 294°
2026-04-28 16:44 -5.70878 106.21083 16757 ft 409 kts 295°
2026-04-28 16:45 -5.69636 106.18498 17452 ft 413 kts 295°
2026-04-28 16:45 -5.68371 106.15898 18132 ft 416 kts 296°
2026-04-28 16:45 -5.67092 106.13284 18767 ft 420 kts 296°
2026-04-28 16:45 -5.65797 106.10642 19367 ft 424 kts 296°
2026-04-28 16:46 -5.64487 106.07974 19967 ft 428 kts 296°
2026-04-28 16:46 -5.63167 106.05284 20572 ft 431 kts 296°
2026-04-28 16:46 -5.61834 106.02569 21122 ft 435 kts 296°
2026-04-28 16:46 -5.60491 105.99832 21674 ft 439 kts 296°
2026-04-28 16:47 -5.59135 105.97069 22195 ft 442 kts 296°
2026-04-28 16:47 -5.57772 105.94293 22726 ft 446 kts 296°
2026-04-28 16:47 -5.56395 105.91488 23228 ft 449 kts 296°
2026-04-28 16:47 -5.55008 105.88664 23736 ft 453 kts 296°
2026-04-28 16:48 -5.53606 105.85810 24205 ft 456 kts 296°
2026-04-28 16:48 -5.52197 105.82940 24678 ft 459 kts 296°
2026-04-28 16:48 -5.50796 105.80088 25138 ft 462 kts 296°
2026-04-28 16:48 -5.49372 105.77189 25573 ft 466 kts 296°
2026-04-28 16:49 -5.47936 105.74267 25990 ft 469 kts 296°
2026-04-28 16:49 -5.46486 105.71316 26388 ft 472 kts 296°
2026-04-28 16:49 -5.45032 105.68357 26797 ft 474 kts 296°
2026-04-28 16:49 -5.43566 105.65374 27182 ft 477 kts 296°
2026-04-28 16:50 -5.42104 105.62378 27555 ft 480 kts 294°
2026-04-28 16:50 -5.40794 105.59282 27924 ft 482 kts 291°
2026-04-28 16:50 -5.39620 105.56117 28255 ft 485 kts 289°
2026-04-28 16:50 -5.38489 105.52921 28587 ft 487 kts 289°
2026-04-28 16:51 -5.37350 105.49713 28897 ft 490 kts 289°
2026-04-28 16:51 -5.36181 105.46489 29191 ft 492 kts 290°
2026-04-28 16:51 -5.34988 105.43268 29491 ft 494 kts 290°
2026-04-28 16:51 -5.33791 105.40075 29780 ft 495 kts 290°
2026-04-28 16:52 -5.32571 105.36843 30148 ft 495 kts 290°
2026-04-28 16:52 -5.31353 105.33618 30559 ft 493 kts 290°
2026-04-28 16:52 -5.30141 105.30405 30937 ft 492 kts 290°
2026-04-28 16:52 -5.28931 105.27191 31283 ft 491 kts 290°
2026-04-28 16:53 -5.27726 105.23987 31611 ft 491 kts 290°
2026-04-28 16:53 -5.26521 105.20788 31910 ft 491 kts 290°
2026-04-28 16:53 -5.25207 105.17609 31969 ft 494 kts 295°
2026-04-28 16:54 -5.22213 105.11394 32000 ft 492 kts 296°
2026-04-28 16:54 -5.19212 105.05252 32000 ft 489 kts 296°
2026-04-28 16:55 -5.16246 104.99123 32003 ft 488 kts 295°
2026-04-28 16:55 -5.13313 104.93024 32002 ft 488 kts 295°
2026-04-28 16:56 -5.10490 104.87151 32003 ft 489 kts 295°
2026-04-28 16:56 -5.07495 104.80923 32002 ft 490 kts 295°
2026-04-28 16:57 -5.04529 104.74763 32002 ft 491 kts 295°
2026-04-28 16:57 -5.01557 104.68588 32001 ft 491 kts 295°
2026-04-28 16:58 -4.98603 104.62456 32001 ft 491 kts 295°
2026-04-28 16:58 -4.95631 104.56284 32003 ft 491 kts 295°
2026-04-28 16:59 -4.92657 104.50112 32000 ft 491 kts 295°
2026-04-28 16:59 -4.89675 104.43952 32001 ft 491 kts 296°
2026-04-28 17:00 -4.86661 104.37812 32001 ft 491 kts 296°
2026-04-28 17:00 -4.83644 104.31675 32001 ft 490 kts 296°
2026-04-28 17:01 -4.80628 104.25532 32000 ft 490 kts 296°
2026-04-28 17:01 -4.77634 104.19427 32001 ft 490 kts 296°
2026-04-28 17:02 -4.74625 104.13292 32002 ft 490 kts 296°
2026-04-28 17:02 -4.71616 104.07158 32001 ft 490 kts 296°
2026-04-28 17:03 -4.67110 103.97977 32001 ft 490 kts 296°
2026-04-28 17:03 -4.64092 103.91830 32000 ft 490 kts 296°
2026-04-28 17:04 -4.59571 103.82624 32002 ft 490 kts 296°
2026-04-28 17:05 -4.55069 103.73462 32002 ft 490 kts 296°
2026-04-28 17:06 -4.50543 103.64253 32002 ft 490 kts 296°
2026-04-28 17:06 -4.46029 103.55072 32002 ft 490 kts 296°
2026-04-28 17:07 -4.43519 103.49969 32001 ft 491 kts 296°
2026-04-28 17:07 -4.40497 103.43826 32004 ft 491 kts 296°
2026-04-28 17:08 -4.37473 103.37679 32000 ft 491 kts 296°
2026-04-28 17:08 -4.34474 103.31586 32003 ft 491 kts 296°
2026-04-28 17:09 -4.31449 103.25443 32000 ft 491 kts 296°
2026-04-28 17:09 -4.28428 103.19308 32003 ft 491 kts 296°
2026-04-28 17:10 -4.25419 103.13198 31998 ft 490 kts 296°
2026-04-28 17:10 -4.22396 103.07063 32005 ft 490 kts 296°
2026-04-28 17:11 -4.19379 103.00940 32002 ft 490 kts 296°
2026-04-28 17:11 -4.16362 102.94819 32002 ft 490 kts 296°
2026-04-28 17:12 -4.13338 102.88685 32001 ft 490 kts 296°
2026-04-28 17:12 -4.10315 102.82554 32001 ft 490 kts 296°
2026-04-28 17:13 -4.07291 102.76423 32001 ft 490 kts 296°
2026-04-28 17:13 -4.04285 102.70330 32002 ft 490 kts 296°
2026-04-28 17:14 -4.01257 102.64193 32003 ft 490 kts 296°
2026-04-28 17:14 -3.98230 102.58060 32001 ft 490 kts 296°
2026-04-28 17:15 -3.95226 102.51974 32002 ft 490 kts 296°
2026-04-28 17:15 -3.92200 102.45845 32000 ft 490 kts 296°
2026-04-28 17:16 -3.89173 102.39715 32001 ft 490 kts 296°
2026-04-28 17:16 -3.86145 102.33585 32001 ft 490 kts 296°
2026-04-28 17:17 -3.83131 102.27504 32001 ft 490 kts 296°
2026-04-28 17:17 -3.80089 102.21372 32001 ft 490 kts 296°
2026-04-28 17:18 -3.77054 102.15254 32001 ft 490 kts 296°
2026-04-28 17:18 -3.74018 102.09133 32001 ft 490 kts 296°
2026-04-28 17:19 -3.71002 102.03051 32001 ft 490 kts 296°
2026-04-28 17:19 -3.67965 101.96929 32001 ft 490 kts 296°
2026-04-28 17:20 -3.65442 101.91844 32001 ft 490 kts 296°
2026-04-28 17:20 -3.61890 101.84689 32001 ft 490 kts 296°
2026-04-28 17:21 -3.58867 101.78598 32001 ft 490 kts 296°
2026-04-28 17:22 -3.54307 101.69413 32001 ft 490 kts 296°
2026-04-28 17:22 -3.51269 101.63296 32001 ft 490 kts 296°
2026-04-28 17:23 -3.46728 101.54157 32001 ft 490 kts 296°
2026-04-28 17:23 -3.43686 101.48034 32001 ft 490 kts 296°
2026-04-28 17:24 -3.40648 101.41920 32001 ft 490 kts 296°
2026-04-28 17:24 -3.37606 101.35802 32001 ft 490 kts 296°
2026-04-28 17:25 -3.33064 101.26666 32001 ft 490 kts 296°
2026-04-28 17:26 -3.30021 101.20547 32001 ft 490 kts 296°
2026-04-28 17:26 -3.26982 101.14439 32001 ft 490 kts 296°
2026-04-28 17:27 -3.23942 101.08326 32001 ft 490 kts 296°
2026-04-28 17:27 -3.20885 101.02184 32341 ft 493 kts 296°
2026-04-28 17:27 -3.19360 100.99119 32700 ft 491 kts 296°
2026-04-28 17:28 -3.17862 100.96110 33077 ft 489 kts 296°
2026-04-28 17:28 -3.14842 100.90043 33716 ft 486 kts 296°
2026-04-28 17:28 -3.13334 100.87013 33919 ft 486 kts 296°
2026-04-28 17:29 -3.10306 100.80931 33994 ft 488 kts 296°
2026-04-28 17:30 -3.05780 100.71843 34000 ft 484 kts 296°
2026-04-28 17:30 -3.01285 100.62819 34001 ft 483 kts 296°
2026-04-28 17:31 -2.96804 100.53826 34003 ft 484 kts 296°
2026-04-28 17:32 -2.92292 100.44772 34003 ft 485 kts 296°
2026-04-28 17:32 -2.89275 100.38720 34002 ft 486 kts 296°
2026-04-28 17:33 -2.86249 100.32650 34001 ft 487 kts 296°
2026-04-28 17:33 -2.83733 100.27605 34002 ft 487 kts 296°
2026-04-28 17:34 -2.80214 100.20548 34002 ft 487 kts 296°
2026-04-28 17:34 -2.77186 100.14477 34001 ft 487 kts 296°
2026-04-28 17:35 -2.74160 100.08412 34003 ft 487 kts 296°
2026-04-28 17:35 -2.71137 100.02353 33999 ft 486 kts 296°
2026-04-28 17:36 -2.68134 99.96334 34000 ft 486 kts 296°
2026-04-28 17:36 -2.65114 99.90283 34002 ft 486 kts 296°
2026-04-28 17:37 -2.62100 99.84245 34001 ft 485 kts 296°
2026-04-28 17:37 -2.59083 99.78200 34001 ft 485 kts 296°
2026-04-28 17:38 -2.56063 99.72151 34001 ft 485 kts 296°
2026-04-28 17:38 -2.53048 99.66112 34002 ft 486 kts 296°
2026-04-28 17:39 -2.50028 99.60064 34001 ft 486 kts 296°
2026-04-28 17:40 -2.45552 99.50964 34001 ft 486 kts 295°
2026-04-28 17:40 -2.42697 99.44879 34001 ft 486 kts 295°
2026-04-28 17:41 -2.39830 99.38756 34002 ft 486 kts 295°
2026-04-28 17:41 -2.36949 99.32640 34001 ft 486 kts 295°
2026-04-28 17:42 -2.34055 99.26516 34001 ft 486 kts 295°
2026-04-28 17:42 -2.31183 99.20443 34001 ft 486 kts 295°
2026-04-28 17:43 -2.28296 99.14337 34001 ft 486 kts 295°
2026-04-28 17:43 -2.25407 99.08226 34001 ft 486 kts 295°
2026-04-28 17:44 -2.22514 99.02110 34001 ft 486 kts 295°
2026-04-28 17:44 -2.19626 98.96001 34001 ft 486 kts 295°
2026-04-28 17:45 -2.16735 98.89888 34002 ft 486 kts 295°
2026-04-28 17:45 -2.13841 98.83772 34002 ft 486 kts 295°
2026-04-28 17:46 -2.10951 98.77663 34000 ft 486 kts 295°
2026-04-28 17:46 -2.08056 98.71544 34002 ft 486 kts 295°
2026-04-28 17:47 -2.05167 98.65438 34001 ft 486 kts 295°
2026-04-28 17:47 -2.02275 98.59327 34001 ft 486 kts 295°
2026-04-28 17:48 -1.99404 98.53263 34001 ft 486 kts 295°
2026-04-28 17:48 -1.96510 98.47148 34001 ft 486 kts 295°
2026-04-28 17:49 -1.93618 98.41040 34001 ft 486 kts 295°
2026-04-28 17:49 -1.90724 98.34928 34001 ft 486 kts 295°
2026-04-28 17:50 -1.87832 98.28819 34001 ft 486 kts 295°
2026-04-28 17:50 -1.84940 98.22713 34001 ft 486 kts 295°
2026-04-28 17:51 -1.82050 98.16610 34002 ft 486 kts 295°
2026-04-28 17:51 -1.79172 98.10535 34001 ft 486 kts 295°
2026-04-28 17:52 -1.76275 98.04419 34001 ft 486 kts 295°
2026-04-28 17:52 -1.71931 97.95249 34000 ft 486 kts 295°
2026-04-28 17:53 -1.69039 97.89145 34001 ft 486 kts 295°
2026-04-28 17:53 -1.66143 97.83033 34001 ft 486 kts 295°
2026-04-28 17:54 -1.63247 97.76921 34002 ft 486 kts 295°
2026-04-28 17:54 -1.60845 97.71851 34001 ft 486 kts 295°
2026-04-28 17:55 -1.57454 97.64758 34001 ft 486 kts 295°
2026-04-28 17:55 -1.54481 97.58687 34002 ft 486 kts 296°
2026-04-28 17:56 -1.52006 97.53644 34002 ft 486 kts 296°
2026-04-28 17:56 -1.49030 97.47562 34001 ft 486 kts 296°
2026-04-28 17:57 -1.46063 97.41484 34001 ft 486 kts 296°
2026-04-28 17:57 -1.43098 97.35408 34000 ft 486 kts 296°
2026-04-28 17:58 -1.40133 97.29333 34001 ft 486 kts 296°
2026-04-28 17:58 -1.37185 97.23294 34001 ft 486 kts 296°
2026-04-28 17:59 -1.34220 97.17222 34001 ft 486 kts 296°
2026-04-28 17:59 -1.31254 97.11148 34001 ft 486 kts 296°
2026-04-28 18:00 -1.28288 97.05073 34002 ft 486 kts 296°
2026-04-28 18:00 -1.25319 96.98994 34001 ft 486 kts 296°
2026-04-28 18:01 -1.22353 96.92921 34001 ft 486 kts 296°
2026-04-28 18:01 -1.19385 96.86844 34000 ft 486 kts 296°
2026-04-28 18:02 -1.16438 96.80811 34001 ft 486 kts 296°
2026-04-28 18:02 -1.13468 96.74730 34001 ft 486 kts 296°
2026-04-28 18:03 -1.10502 96.68658 34002 ft 486 kts 296°
2026-04-28 18:03 -1.07535 96.62585 34001 ft 486 kts 296°
2026-04-28 18:04 -1.04567 96.56510 34002 ft 486 kts 296°
2026-04-28 18:04 -1.01598 96.50434 34001 ft 486 kts 296°
2026-04-28 18:05 -0.99129 96.45380 34001 ft 486 kts 296°
2026-04-28 18:05 -0.95685 96.38332 34001 ft 486 kts 296°
2026-04-28 18:06 -0.92713 96.32250 34002 ft 486 kts 296°
2026-04-28 18:06 -0.89744 96.26176 34001 ft 486 kts 296°
2026-04-28 18:07 -0.86767 96.20084 34002 ft 486 kts 296°
2026-04-28 18:07 -0.83817 96.14048 34002 ft 486 kts 296°
2026-04-28 18:08 -0.80848 96.07973 34002 ft 486 kts 296°
2026-04-28 18:08 -0.77874 96.01889 34002 ft 486 kts 296°
2026-04-28 18:09 -0.74905 95.95816 34002 ft 486 kts 296°
2026-04-28 18:09 -0.71931 95.89732 34001 ft 486 kts 296°
2026-04-28 18:10 -0.68982 95.83698 34001 ft 486 kts 296°
2026-04-28 18:10 -0.66023 95.77645 34001 ft 486 kts 296°
2026-04-28 18:11 -0.63045 95.71555 34000 ft 486 kts 296°
2026-04-28 18:11 -0.60073 95.65476 34002 ft 486 kts 296°
2026-04-28 18:12 -0.57106 95.59406 34001 ft 486 kts 296°
2026-04-28 18:12 -0.54130 95.53320 34001 ft 486 kts 296°
2026-04-28 18:13 -0.51160 95.47246 34002 ft 486 kts 296°
2026-04-28 18:13 -0.48212 95.41216 34002 ft 486 kts 296°
2026-04-28 18:14 -0.45239 95.35136 34001 ft 486 kts 296°
2026-04-28 18:14 -0.42267 95.29057 34001 ft 486 kts 296°
2026-04-28 18:15 -0.39298 95.22986 34002 ft 486 kts 296°
2026-04-28 18:15 -0.36326 95.16905 34001 ft 486 kts 296°
2026-04-28 18:16 -0.33375 95.10870 34001 ft 486 kts 296°
2026-04-28 18:16 -0.30400 95.04787 34002 ft 486 kts 296°
2026-04-28 18:17 -0.27428 94.98709 34001 ft 486 kts 296°
2026-04-28 18:17 -0.24459 94.92636 34001 ft 486 kts 296°
2026-04-28 18:18 -0.21492 94.86566 34001 ft 486 kts 296°
2026-04-28 18:18 -0.19025 94.81517 34002 ft 486 kts 296°
2026-04-28 18:19 -0.15554 94.74416 34002 ft 486 kts 296°
2026-04-28 18:19 -0.12602 94.68378 34001 ft 486 kts 296°
2026-04-28 18:20 -0.09630 94.62297 34001 ft 486 kts 296°
2026-04-28 18:20 -0.06660 94.56220 34002 ft 486 kts 296°
2026-04-28 18:21 -0.03693 94.50150 34002 ft 486 kts 296°
2026-04-28 18:21 -0.00745 94.44119 34002 ft 486 kts 296°
2026-04-28 18:22 0.02225 94.38042 34001 ft 486 kts 296°
2026-04-28 18:22 0.05197 94.31962 34001 ft 486 kts 296°
2026-04-28 18:23 0.08171 94.25878 34001 ft 486 kts 296°
2026-04-28 18:23 0.11136 94.19811 32592 ft 487 kts 297°
2026-04-28 18:24 0.12627 94.16759 32867 ft 486 kts 297°
2026-04-28 18:24 0.13607 94.14755 33023 ft 487 kts 297°
2026-04-28 18:24 0.15597 94.10684 33358 ft 487 kts 297°
2026-04-28 18:24 0.17066 94.07679 33587 ft 487 kts 297°
2026-04-28 18:25 0.18560 94.04624 33732 ft 490 kts 297°
2026-04-28 18:25 0.20063 94.01549 33804 ft 493 kts 297°
2026-04-28 18:26 0.24636 93.92192 33880 ft 505 kts 297°
2026-04-28 18:26 0.27738 93.85844 33882 ft 511 kts 297°
2026-04-28 18:27 0.30867 93.79442 33877 ft 513 kts 296°
2026-04-28 18:27 0.33979 93.73071 33870 ft 512 kts 296°
2026-04-28 18:28 0.37104 93.66677 33867 ft 511 kts 296°
2026-04-28 18:28 0.40214 93.60303 33870 ft 509 kts 296°
2026-04-28 18:29 0.43296 93.53980 33871 ft 508 kts 296°
2026-04-28 18:29 0.46386 93.47639 33871 ft 507 kts 296°
2026-04-28 18:30 0.49475 93.41298 33872 ft 507 kts 296°
2026-04-28 18:30 0.52564 93.34961 33875 ft 508 kts 296°
2026-04-28 18:31 0.55655 93.28618 33870 ft 508 kts 296°
2026-04-28 18:31 0.58758 93.22251 33874 ft 509 kts 297°
2026-04-28 18:32 0.61862 93.15881 33872 ft 510 kts 296°
2026-04-28 18:32 0.64948 93.09548 33869 ft 510 kts 297°
2026-04-28 18:33 0.68061 93.03159 33868 ft 511 kts 297°
2026-04-28 18:33 0.71173 92.96772 33872 ft 511 kts 297°
2026-04-28 18:34 0.74289 92.90376 33870 ft 512 kts 297°
2026-04-28 18:34 0.77403 92.83983 33870 ft 512 kts 297°
2026-04-28 18:35 0.80517 92.77593 33869 ft 512 kts 297°
2026-04-28 18:35 0.83632 92.71198 33867 ft 512 kts 297°
2026-04-28 18:36 0.86751 92.64795 33868 ft 512 kts 297°
2026-04-28 18:36 0.89847 92.58439 33867 ft 512 kts 297°
2026-04-28 18:37 0.92962 92.52044 33866 ft 512 kts 297°
2026-04-28 18:37 0.96081 92.45639 33871 ft 512 kts 297°
2026-04-28 18:38 0.99202 92.39232 33867 ft 513 kts 297°
2026-04-28 18:38 1.02328 92.32811 33865 ft 513 kts 297°
2026-04-28 18:39 1.05452 92.26397 33866 ft 513 kts 297°
2026-04-28 18:39 1.08578 92.19976 33863 ft 514 kts 297°
2026-04-28 18:40 1.11702 92.13558 33865 ft 514 kts 297°
2026-04-28 18:40 1.14813 92.07166 33859 ft 514 kts 297°
2026-04-28 18:41 1.17943 92.00737 33862 ft 514 kts 297°
2026-04-28 18:41 1.21103 91.94322 33859 ft 514 kts 297°
2026-04-28 18:42 1.24302 91.87917 33861 ft 514 kts 297°
2026-04-28 18:42 1.27498 91.81515 33862 ft 514 kts 297°
2026-04-28 18:43 1.30687 91.75109 33859 ft 514 kts 297°
2026-04-28 18:43 1.33856 91.68733 33862 ft 514 kts 297°
2026-04-28 18:44 1.37038 91.62334 33861 ft 514 kts 297°
2026-04-28 18:44 1.41809 91.52735 33862 ft 514 kts 297°
2026-04-28 18:45 1.44454 91.47415 33860 ft 514 kts 297°
2026-04-28 18:45 1.47638 91.41010 33857 ft 514 kts 297°
2026-04-28 18:46 1.50819 91.34611 33856 ft 514 kts 297°
2026-04-28 18:46 1.54000 91.28209 33858 ft 514 kts 297°
2026-04-28 18:47 1.57182 91.21807 33858 ft 514 kts 297°
2026-04-28 18:47 1.60360 91.15411 33858 ft 514 kts 297°
2026-04-28 18:48 1.63538 91.09015 33858 ft 514 kts 297°
2026-04-28 18:48 1.66717 91.02615 33853 ft 514 kts 297°
2026-04-28 18:49 1.69363 90.97288 33860 ft 514 kts 297°
2026-04-28 18:49 1.73060 90.89846 33858 ft 514 kts 297°
2026-04-28 18:50 1.76241 90.83441 33855 ft 514 kts 297°
2026-04-28 18:50 1.79417 90.77045 33851 ft 513 kts 297°
2026-04-28 18:51 1.82594 90.70648 33856 ft 513 kts 297°
2026-04-28 18:51 1.85765 90.64260 33851 ft 513 kts 297°
2026-04-28 18:52 1.88939 90.57867 33854 ft 513 kts 297°
2026-04-28 18:52 1.92110 90.51480 33854 ft 513 kts 297°
2026-04-28 18:53 1.95283 90.45086 33852 ft 513 kts 297°
2026-04-28 18:53 1.98349 90.38908 33853 ft 513 kts 297°
2026-04-28 18:54 2.01521 90.32517 33850 ft 513 kts 297°
2026-04-28 18:54 2.04692 90.26124 33852 ft 513 kts 297°
2026-04-28 18:55 2.07838 90.19783 33852 ft 512 kts 297°
2026-04-28 18:55 2.11002 90.13404 33849 ft 511 kts 297°
2026-04-28 18:56 2.14163 90.07030 33853 ft 511 kts 297°
2026-04-28 18:56 2.17317 90.00671 33854 ft 510 kts 297°
2026-04-28 18:57 2.20472 89.94307 33852 ft 509 kts 297°
2026-04-28 18:57 2.23619 89.87959 33851 ft 509 kts 297°
2026-04-28 18:58 2.26739 89.81663 33859 ft 508 kts 297°
2026-04-28 18:58 2.29875 89.75337 33853 ft 508 kts 297°
2026-04-28 18:59 2.33008 89.69011 33855 ft 508 kts 297°
2026-04-28 18:59 2.36142 89.62679 33855 ft 508 kts 297°
2026-04-28 19:00 2.39278 89.56339 33837 ft 508 kts 297°
2026-04-28 19:00 2.42413 89.50004 33842 ft 508 kts 297°
2026-04-28 19:01 2.45548 89.43664 33835 ft 508 kts 297°
2026-04-28 19:01 2.48684 89.37324 33835 ft 508 kts 297°
2026-04-28 19:02 2.51796 89.31031 33831 ft 508 kts 297°
2026-04-28 19:02 2.54931 89.24690 33835 ft 508 kts 297°
2026-04-28 19:03 2.58066 89.18349 33837 ft 508 kts 297°
2026-04-28 19:03 2.61198 89.12013 33833 ft 508 kts 297°
2026-04-28 19:04 2.64331 89.05674 33835 ft 508 kts 297°
2026-04-28 19:04 2.67462 88.99337 33837 ft 508 kts 297°
2026-04-28 19:05 2.70595 88.92997 33838 ft 508 kts 297°
2026-04-28 19:05 2.73724 88.86663 33836 ft 508 kts 297°
2026-04-28 19:06 2.76329 88.81387 33836 ft 508 kts 297°
2026-04-28 19:06 2.79969 88.74016 33830 ft 508 kts 297°
2026-04-28 19:07 2.83104 88.67668 33834 ft 508 kts 297°
2026-04-28 19:07 2.86237 88.61319 33836 ft 509 kts 297°
2026-04-28 19:08 2.89374 88.54962 33832 ft 509 kts 297°
2026-04-28 19:08 2.92515 88.48597 33837 ft 510 kts 297°
2026-04-28 19:09 2.95722 88.42264 33837 ft 510 kts 299°
2026-04-28 19:09 2.99054 88.35997 33838 ft 511 kts 299°
2026-04-28 19:10 3.02403 88.29708 33832 ft 511 kts 299°
2026-04-28 19:10 3.05707 88.23450 33835 ft 512 kts 299°
2026-04-28 19:11 3.09023 88.17147 33838 ft 512 kts 299°
2026-04-28 19:11 3.12343 88.10835 33834 ft 512 kts 299°
2026-04-28 19:12 3.15661 88.04529 33838 ft 512 kts 299°
2026-04-28 19:12 3.18984 87.98213 33837 ft 512 kts 299°
2026-04-28 19:13 3.22306 87.91898 33838 ft 512 kts 299°
2026-04-28 19:13 3.25623 87.85591 33836 ft 512 kts 299°
2026-04-28 19:14 3.28939 87.79283 33836 ft 512 kts 299°
2026-04-28 19:14 3.32231 87.73003 33841 ft 512 kts 298°
2026-04-28 19:15 3.35427 87.66637 33852 ft 512 kts 298°
2026-04-28 19:15 3.38065 87.61286 33848 ft 512 kts 297°
2026-04-28 19:16 3.41733 87.53867 33850 ft 512 kts 298°
2026-04-28 19:16 3.44908 87.47481 33848 ft 512 kts 298°
2026-04-28 19:17 3.48086 87.41101 33852 ft 512 kts 298°
2026-04-28 19:17 3.51262 87.34723 33850 ft 512 kts 298°
2026-04-28 19:18 3.54441 87.28335 33845 ft 512 kts 297°
2026-04-28 19:18 3.57617 87.21951 33847 ft 511 kts 297°
2026-04-28 19:19 3.60766 87.15619 33851 ft 511 kts 297°
2026-04-28 19:19 3.63931 87.09254 33851 ft 511 kts 297°
2026-04-28 19:20 3.67098 87.02886 33848 ft 510 kts 297°
2026-04-28 19:20 3.70261 86.96523 33841 ft 510 kts 297°
2026-04-28 19:21 3.73421 86.90164 33848 ft 510 kts 297°
2026-04-28 19:21 3.76578 86.83809 33845 ft 509 kts 297°
2026-04-28 19:22 3.78667 86.79604 33849 ft 509 kts 297°
2026-04-28 19:22 3.82864 86.71153 33844 ft 509 kts 297°
2026-04-28 19:23 3.86022 86.64793 33847 ft 509 kts 297°
2026-04-28 19:23 3.89172 86.58448 33847 ft 509 kts 297°
2026-04-28 19:24 3.92324 86.52098 33846 ft 509 kts 297°
2026-04-28 19:24 3.95472 86.45753 33847 ft 508 kts 297°
2026-04-28 19:25 3.98597 86.39454 33849 ft 508 kts 297°
2026-04-28 19:25 4.01740 86.33116 33846 ft 508 kts 297°
2026-04-28 19:26 4.04884 86.26775 33845 ft 507 kts 297°
2026-04-28 19:26 4.08016 86.20458 33843 ft 506 kts 297°
2026-04-28 19:27 4.11148 86.14139 33847 ft 506 kts 297°
2026-04-28 19:27 4.14274 86.07829 33849 ft 505 kts 297°
2026-04-28 19:28 4.17381 86.01557 33847 ft 505 kts 297°
2026-04-28 19:28 4.20505 85.95251 33847 ft 504 kts 297°
2026-04-28 19:29 4.23095 85.90020 33849 ft 503 kts 297°
2026-04-28 19:29 4.26732 85.82672 33849 ft 503 kts 296°
2026-04-28 19:30 4.29835 85.76403 33848 ft 502 kts 296°
2026-04-28 19:30 4.32938 85.70131 33844 ft 502 kts 296°
2026-04-28 19:31 4.36017 85.63907 33847 ft 502 kts 296°
2026-04-28 19:31 4.39116 85.57641 33850 ft 502 kts 296°
2026-04-28 19:32 4.42222 85.51357 33843 ft 502 kts 296°
2026-04-28 19:32 4.44803 85.46136 33851 ft 502 kts 296°
2026-04-28 19:33 4.47902 85.39864 33847 ft 503 kts 296°
2026-04-28 19:33 4.51519 85.32544 33849 ft 503 kts 296°
2026-04-28 19:34 4.54124 85.27270 33846 ft 504 kts 296°
2026-04-28 19:34 4.57214 85.21012 33845 ft 504 kts 296°
2026-04-28 19:35 4.60324 85.14711 33847 ft 504 kts 296°
2026-04-28 19:35 4.63433 85.08411 33845 ft 504 kts 296°
2026-04-28 19:36 4.66539 85.02118 33843 ft 504 kts 296°
2026-04-28 19:36 4.69649 84.95813 33843 ft 504 kts 296°
2026-04-28 19:37 4.72230 84.90578 33845 ft 504 kts 296°
2026-04-28 19:37 4.75841 84.83254 33844 ft 503 kts 296°
2026-04-28 19:38 4.78941 84.76964 33847 ft 503 kts 296°
2026-04-28 19:38 4.82040 84.70674 33844 ft 503 kts 296°
2026-04-28 19:39 4.85142 84.64378 33847 ft 503 kts 296°
2026-04-28 19:39 4.88239 84.58087 33845 ft 503 kts 296°
2026-04-28 19:40 4.91332 84.51806 33846 ft 503 kts 296°
2026-04-28 19:40 4.94412 84.45547 33842 ft 503 kts 296°
2026-04-28 19:41 4.97509 84.39253 33845 ft 503 kts 296°
2026-04-28 19:41 5.00608 84.32951 33846 ft 503 kts 296°
2026-04-28 19:42 5.03709 84.26646 33845 ft 503 kts 296°
2026-04-28 19:42 5.06282 84.21411 33845 ft 504 kts 296°
2026-04-28 19:43 5.09908 84.14033 33847 ft 504 kts 296°
2026-04-28 19:43 5.12985 84.07769 33846 ft 504 kts 296°
2026-04-28 19:44 5.16084 84.01458 33840 ft 504 kts 296°
2026-04-28 19:44 5.19146 83.95131 33841 ft 504 kts 296°
2026-04-28 19:45 5.22149 83.88784 33842 ft 503 kts 295°
2026-04-28 19:45 5.25149 83.82433 33841 ft 503 kts 295°
2026-04-28 19:46 5.28155 83.76091 33842 ft 502 kts 295°
2026-04-28 19:46 5.31157 83.69767 33840 ft 501 kts 295°
2026-04-28 19:47 5.34137 83.63488 33839 ft 500 kts 295°
2026-04-28 19:47 5.37129 83.57181 33838 ft 500 kts 295°
2026-04-28 19:48 5.40112 83.50891 33842 ft 499 kts 295°
2026-04-28 19:48 5.43096 83.44597 33839 ft 499 kts 295°
2026-04-28 19:49 5.46080 83.38299 33844 ft 500 kts 295°
2026-04-28 19:49 5.49070 83.31988 33842 ft 501 kts 295°
2026-04-28 19:50 5.53562 83.22502 33845 ft 503 kts 295°
2026-04-28 19:51 5.56569 83.16150 33844 ft 504 kts 295°
2026-04-28 19:51 5.59559 83.09831 33838 ft 504 kts 295°
2026-04-28 19:52 5.62566 83.03473 33837 ft 505 kts 295°
2026-04-28 19:52 5.65583 82.97094 33840 ft 505 kts 295°
2026-04-28 19:53 5.68597 82.90719 33841 ft 505 kts 295°
2026-04-28 19:53 5.71611 82.84341 33844 ft 505 kts 295°
2026-04-28 19:54 5.74620 82.77972 33842 ft 504 kts 295°
2026-04-28 19:54 5.77627 82.71605 33827 ft 504 kts 295°
2026-04-28 19:55 5.80634 82.65235 33837 ft 504 kts 295°
2026-04-28 19:55 5.83623 82.58901 33842 ft 504 kts 295°
2026-04-28 19:56 5.86627 82.52533 33844 ft 504 kts 295°
2026-04-28 19:56 5.89635 82.46154 33829 ft 505 kts 295°
2026-04-28 19:57 5.92642 82.39776 33849 ft 506 kts 295°
2026-04-28 19:57 5.95653 82.33386 33845 ft 506 kts 295°
2026-04-28 19:58 5.98669 82.26985 33829 ft 507 kts 295°
2026-04-28 19:58 6.01686 82.20578 33842 ft 508 kts 295°
2026-04-28 19:59 6.04705 82.14164 33840 ft 508 kts 295°
2026-04-28 19:59 6.07722 82.07752 33843 ft 508 kts 295°
2026-04-28 20:00 6.10746 82.01321 33829 ft 509 kts 295°
2026-04-28 20:00 6.13750 81.94936 33844 ft 509 kts 295°
2026-04-28 20:01 6.16792 81.88523 33847 ft 508 kts 295°
2026-04-28 20:01 6.19841 81.82110 33830 ft 508 kts 295°
2026-04-28 20:02 6.22881 81.75705 33825 ft 507 kts 295°
2026-04-28 20:02 6.25912 81.69312 33825 ft 506 kts 295°
2026-04-28 20:03 6.28936 81.62928 33847 ft 505 kts 295°
2026-04-28 20:03 6.31958 81.56547 33843 ft 505 kts 295°
2026-04-28 20:04 6.35007 81.50198 33832 ft 504 kts 296°
2026-04-28 20:04 6.38178 81.43919 33847 ft 504 kts 296°
2026-04-28 20:05 6.41369 81.37641 33847 ft 503 kts 296°
2026-04-28 20:05 6.44519 81.31397 33831 ft 503 kts 296°
2026-04-28 20:06 6.47671 81.25122 33835 ft 503 kts 296°
2026-04-28 20:06 6.50825 81.18836 33855 ft 502 kts 296°
2026-04-28 20:07 6.53975 81.12559 33861 ft 502 kts 296°
2026-04-28 20:07 6.57120 81.06290 33864 ft 502 kts 296°
2026-04-28 20:08 6.60263 81.00024 33872 ft 502 kts 296°
2026-04-28 20:08 6.63411 80.93744 33879 ft 502 kts 296°
2026-04-28 20:09 6.66538 80.87504 33890 ft 502 kts 296°
2026-04-28 20:09 6.69685 80.81221 33897 ft 503 kts 296°
2026-04-28 20:10 6.72832 80.74936 33904 ft 503 kts 296°
2026-04-28 20:10 6.75970 80.68642 33905 ft 503 kts 296°
2026-04-28 20:11 6.79072 80.62337 33904 ft 502 kts 296°
2026-04-28 20:11 6.82150 80.56065 33892 ft 502 kts 296°
2026-04-28 20:12 6.85245 80.49768 33886 ft 502 kts 296°
2026-04-28 20:12 6.88341 80.43471 33883 ft 501 kts 296°
2026-04-28 20:13 6.91433 80.37180 33872 ft 501 kts 296°
2026-04-28 20:13 6.94521 80.30896 33865 ft 500 kts 296°
2026-04-28 20:14 6.97583 80.24663 33853 ft 500 kts 296°
2026-04-28 20:14 7.00664 80.18386 33845 ft 500 kts 296°
2026-04-28 20:15 7.03740 80.12118 33842 ft 499 kts 296°
2026-04-28 20:15 7.06815 80.05849 33834 ft 498 kts 296°
2026-04-28 20:16 7.09884 79.99590 33832 ft 498 kts 296°
2026-04-28 20:16 7.12953 79.93327 33829 ft 498 kts 296°
2026-04-28 20:17 7.16017 79.87073 33834 ft 498 kts 296°
2026-04-28 20:17 7.19012 79.80837 33831 ft 498 kts 295°
2026-04-28 20:18 7.21988 79.74535 33832 ft 497 kts 295°
2026-04-28 20:18 7.24960 79.68247 33826 ft 497 kts 295°
2026-04-28 20:19 7.27437 79.63020 33825 ft 497 kts 295°
2026-04-28 20:19 7.30425 79.56720 33824 ft 497 kts 295°
2026-04-28 20:20 7.33402 79.50439 33820 ft 497 kts 295°
2026-04-28 20:20 7.36376 79.44162 33821 ft 496 kts 295°
2026-04-28 20:21 7.39347 79.37887 33824 ft 496 kts 295°
2026-04-28 20:21 7.42315 79.31616 33825 ft 496 kts 295°
2026-04-28 20:22 7.45267 79.25377 33821 ft 496 kts 295°
2026-04-28 20:22 7.48237 79.19094 33822 ft 496 kts 295°
2026-04-28 20:23 7.51204 79.12819 33821 ft 496 kts 295°
2026-04-28 20:23 7.54045 79.06475 33819 ft 496 kts 293°
2026-04-28 20:24 7.56753 79.00068 33822 ft 497 kts 293°
2026-04-28 20:24 7.59470 78.93657 33820 ft 497 kts 293°
2026-04-28 20:25 7.62210 78.87259 33820 ft 497 kts 293°
2026-04-28 20:25 7.64945 78.80897 33814 ft 497 kts 293°
2026-04-28 20:26 7.67698 78.74489 33820 ft 497 kts 293°
2026-04-28 20:26 7.70447 78.68085 33824 ft 497 kts 293°
2026-04-28 20:27 7.73191 78.61685 33820 ft 498 kts 293°
2026-04-28 20:27 7.75941 78.55272 33815 ft 498 kts 293°
2026-04-28 20:28 7.78684 78.48867 33818 ft 498 kts 293°
2026-04-28 20:28 7.81433 78.42451 33822 ft 498 kts 293°
2026-04-28 20:29 7.84184 78.36022 33805 ft 499 kts 293°
2026-04-28 20:29 7.86936 78.29591 33818 ft 499 kts 293°
2026-04-28 20:30 7.89687 78.23155 33819 ft 500 kts 293°
2026-04-28 20:30 7.92424 78.16752 33820 ft 500 kts 293°
2026-04-28 20:31 7.95224 78.10321 33801 ft 500 kts 294°
2026-04-28 20:31 7.98089 78.03922 33813 ft 500 kts 294°
2026-04-28 20:32 8.00949 77.97535 33815 ft 500 kts 294°
2026-04-28 20:32 8.03803 77.91128 33816 ft 500 kts 294°
2026-04-28 20:33 8.06645 77.84728 33817 ft 500 kts 294°
2026-04-28 20:33 8.09485 77.78330 33803 ft 499 kts 293°
2026-04-28 20:34 8.12307 77.71970 33816 ft 499 kts 293°
2026-04-28 20:34 8.15159 77.65542 33823 ft 498 kts 293°
2026-04-28 20:35 8.17972 77.59198 33821 ft 498 kts 293°
2026-04-28 20:35 8.20818 77.52775 33819 ft 498 kts 293°
2026-04-28 20:36 8.23628 77.46433 33805 ft 498 kts 293°
2026-04-28 20:36 8.26451 77.40055 33822 ft 497 kts 293°
2026-04-28 20:37 8.29271 77.33679 33828 ft 497 kts 293°
2026-04-28 20:37 8.32094 77.27299 33810 ft 497 kts 293°
2026-04-28 20:38 8.34914 77.20918 33825 ft 498 kts 293°
2026-04-28 20:38 8.37734 77.14534 33832 ft 498 kts 294°
2026-04-28 20:39 8.40557 77.08141 33828 ft 498 kts 294°
2026-04-28 20:39 8.43365 77.01779 33824 ft 498 kts 294°
2026-04-28 20:40 8.46186 76.95384 33822 ft 498 kts 294°
2026-04-28 20:40 8.48759 76.88887 33842 ft 498 kts 289°
2026-04-28 20:41 8.50957 76.82256 33822 ft 498 kts 288°
2026-04-28 20:41 8.53139 76.75602 33818 ft 498 kts 288°
2026-04-28 20:42 8.55325 76.69009 33824 ft 498 kts 288°
2026-04-28 20:42 8.57534 76.62390 33818 ft 498 kts 288°
2026-04-28 20:43 8.59748 76.55764 33800 ft 498 kts 288°
2026-04-28 20:43 8.61962 76.49133 33804 ft 498 kts 288°
2026-04-28 20:44 8.64176 76.42493 33801 ft 498 kts 288°
2026-04-28 20:44 8.66385 76.35862 33819 ft 498 kts 288°
2026-04-28 20:45 8.68603 76.29198 34185 ft 499 kts 288°
2026-04-28 20:45 8.69708 76.25879 34506 ft 497 kts 288°
2026-04-28 20:45 8.70808 76.22572 34856 ft 495 kts 288°
2026-04-28 20:45 8.71904 76.19275 35183 ft 493 kts 288°
2026-04-28 20:46 8.72994 76.15998 35452 ft 492 kts 288°
2026-04-28 20:46 8.74083 76.12721 35693 ft 492 kts 288°
2026-04-28 20:46 8.75165 76.09465 35740 ft 494 kts 288°
2026-04-28 20:47 8.77354 76.02874 35814 ft 494 kts 288°
2026-04-28 20:47 8.79536 75.96301 35810 ft 492 kts 288°
2026-04-28 20:48 8.81709 75.89748 35815 ft 491 kts 288°
2026-04-28 20:48 8.83877 75.83208 35816 ft 490 kts 288°
2026-04-28 20:49 8.86045 75.76663 35819 ft 491 kts 288°
2026-04-28 20:49 8.88215 75.70107 35815 ft 491 kts 288°
2026-04-28 20:50 8.90373 75.63585 35816 ft 492 kts 288°
2026-04-28 20:50 8.92548 75.57007 35815 ft 493 kts 289°
2026-04-28 20:51 8.94723 75.50423 35817 ft 494 kts 288°
2026-04-28 20:51 8.96902 75.43825 35813 ft 495 kts 289°
2026-04-28 20:52 8.99082 75.37216 35817 ft 495 kts 288°
2026-04-28 20:52 9.01267 75.30591 35816 ft 495 kts 288°
2026-04-28 20:53 9.04536 75.20669 35814 ft 495 kts 288°
2026-04-28 20:53 9.06714 75.14053 35815 ft 495 kts 288°
2026-04-28 20:54 9.08890 75.07439 35814 ft 495 kts 288°
2026-04-28 20:54 9.11049 75.00871 35814 ft 495 kts 288°
2026-04-28 20:55 9.13220 74.94262 35812 ft 495 kts 288°
2026-04-28 20:55 9.15388 74.87659 35815 ft 494 kts 288°
2026-04-28 20:56 9.17554 74.81059 35811 ft 494 kts 288°
2026-04-28 20:56 9.19717 74.74463 35814 ft 493 kts 288°
2026-04-28 20:57 9.21877 74.67869 35812 ft 493 kts 288°
2026-04-28 20:57 9.24034 74.61281 35814 ft 493 kts 288°
2026-04-28 20:58 9.26192 74.54685 35814 ft 493 kts 288°
2026-04-28 20:58 9.28334 74.48136 35813 ft 493 kts 288°
2026-04-28 20:59 9.30486 74.41549 35813 ft 493 kts 288°
2026-04-28 20:59 9.32640 74.34954 35816 ft 493 kts 288°
2026-04-28 21:00 9.34792 74.28358 35816 ft 493 kts 288°
2026-04-28 21:00 9.36932 74.21793 35820 ft 493 kts 288°
2026-04-28 21:01 9.39081 74.15198 35818 ft 493 kts 288°
2026-04-28 21:01 9.41228 74.08607 35816 ft 492 kts 288°
2026-04-28 21:02 9.43390 74.02069 35817 ft 492 kts 288°
2026-04-28 21:02 9.45577 73.95511 35815 ft 491 kts 288°
2026-04-28 21:03 9.47760 73.88948 35815 ft 491 kts 288°
2026-04-28 21:03 9.49933 73.82397 35815 ft 491 kts 288°
2026-04-28 21:04 9.52104 73.75846 35815 ft 490 kts 288°
2026-04-28 21:04 9.54273 73.69293 35813 ft 490 kts 288°
2026-04-28 21:05 9.56073 73.63852 35814 ft 490 kts 288°
2026-04-28 21:05 9.58240 73.57300 35814 ft 490 kts 288°
2026-04-28 21:06 9.60404 73.50751 35813 ft 490 kts 288°
2026-04-28 21:06 9.62574 73.44181 35813 ft 491 kts 288°
2026-04-28 21:07 9.64738 73.37619 35813 ft 491 kts 288°
2026-04-28 21:07 9.66904 73.31051 35814 ft 491 kts 288°
2026-04-28 21:08 9.69067 73.24487 35812 ft 491 kts 288°
2026-04-28 21:08 9.71219 73.17952 35810 ft 491 kts 289°
2026-04-28 21:09 9.73378 73.11391 35813 ft 491 kts 289°
2026-04-28 21:09 9.75538 73.04824 35814 ft 490 kts 289°
2026-04-28 21:10 9.77694 72.98261 35814 ft 490 kts 288°
2026-04-28 21:10 9.79844 72.91712 35814 ft 490 kts 288°
2026-04-28 21:11 9.81994 72.85159 35814 ft 489 kts 288°
2026-04-28 21:11 9.84143 72.78607 35813 ft 489 kts 288°
2026-04-28 21:12 9.86285 72.72069 35815 ft 489 kts 288°
2026-04-28 21:12 9.88412 72.65570 35814 ft 488 kts 288°
2026-04-28 21:13 9.90550 72.59036 35815 ft 488 kts 288°
2026-04-28 21:13 9.92686 72.52500 35813 ft 487 kts 288°
2026-04-28 21:14 9.94820 72.45968 35816 ft 487 kts 288°
2026-04-28 21:14 9.97279 72.39575 35820 ft 486 kts 296°
2026-04-28 21:15 10.00777 72.33710 35818 ft 486 kts 304°
2026-04-28 21:15 10.04562 72.28095 35811 ft 486 kts 304°
2026-04-28 21:16 10.08376 72.22422 35815 ft 486 kts 304°
2026-04-28 21:16 10.12154 72.16744 35813 ft 486 kts 303°
2026-04-28 21:17 10.15922 72.11050 35814 ft 486 kts 303°
2026-04-28 21:17 10.19686 72.05354 35815 ft 486 kts 303°
2026-04-28 21:18 10.23457 71.99648 35817 ft 485 kts 303°
2026-04-28 21:18 10.27221 71.93951 35818 ft 485 kts 303°
2026-04-28 21:19 10.30959 71.88291 35814 ft 485 kts 303°
2026-04-28 21:19 10.34719 71.82597 35812 ft 484 kts 303°
2026-04-28 21:20 10.38471 71.76910 35812 ft 484 kts 303°
2026-04-28 21:20 10.42214 71.71235 35813 ft 484 kts 303°
2026-04-28 21:21 10.45960 71.65552 35812 ft 484 kts 303°
2026-04-28 21:21 10.49679 71.59906 35812 ft 483 kts 303°
2026-04-28 21:22 10.53424 71.54219 35817 ft 483 kts 303°
2026-04-28 21:22 10.56535 71.49492 35817 ft 483 kts 303°
2026-04-28 21:23 10.60905 71.42848 35818 ft 483 kts 303°
2026-04-28 21:23 10.64619 71.37200 35817 ft 483 kts 303°
2026-04-28 21:24 10.68362 71.31504 35819 ft 483 kts 303°
2026-04-28 21:24 10.72088 71.25830 35819 ft 483 kts 303°
2026-04-28 21:25 10.75828 71.20133 35822 ft 483 kts 303°
2026-04-28 21:25 10.79557 71.14449 35822 ft 483 kts 303°
2026-04-28 21:26 10.83262 71.08799 35820 ft 483 kts 303°
2026-04-28 21:26 10.86984 71.03119 35819 ft 483 kts 303°
2026-04-28 21:27 10.90732 70.97398 35820 ft 483 kts 303°
2026-04-28 21:27 10.94432 70.91746 35821 ft 483 kts 303°
2026-04-28 21:28 10.98154 70.86058 35818 ft 483 kts 303°
2026-04-28 21:28 11.01876 70.80367 35820 ft 483 kts 303°
2026-04-28 21:29 11.05599 70.74671 35820 ft 483 kts 303°
2026-04-28 21:29 11.09321 70.68973 35819 ft 482 kts 303°
2026-04-28 21:30 11.13010 70.63324 35817 ft 482 kts 303°
2026-04-28 21:30 11.16725 70.57631 35819 ft 482 kts 303°
2026-04-28 21:31 11.20441 70.51934 35819 ft 482 kts 303°
2026-04-28 21:31 11.24157 70.46233 35819 ft 483 kts 303°
2026-04-28 21:32 11.27867 70.40539 35819 ft 483 kts 303°
2026-04-28 21:32 11.31580 70.34835 35819 ft 483 kts 303°
2026-04-28 21:33 11.35274 70.29160 35816 ft 483 kts 303°
2026-04-28 21:33 11.38985 70.23454 35818 ft 483 kts 303°
2026-04-28 21:34 11.42702 70.17736 35817 ft 483 kts 303°
2026-04-28 21:34 11.46411 70.12026 35817 ft 483 kts 303°
2026-04-28 21:35 11.50120 70.06314 35821 ft 483 kts 303°
2026-04-28 21:35 11.53825 70.00605 35817 ft 482 kts 303°
2026-04-28 21:36 11.57528 69.94893 35817 ft 482 kts 303°
2026-04-28 21:36 11.61207 69.89218 35820 ft 482 kts 303°
2026-04-28 21:37 11.64894 69.83505 35818 ft 482 kts 303°
2026-04-28 21:37 11.68568 69.77780 35820 ft 482 kts 303°
2026-04-28 21:38 11.72238 69.72057 35820 ft 481 kts 303°
2026-04-28 21:38 11.75906 69.66336 35818 ft 481 kts 303°
2026-04-28 21:39 11.79570 69.60621 35815 ft 481 kts 303°
2026-04-28 21:39 11.83237 69.54899 35818 ft 481 kts 303°
2026-04-28 21:40 11.86873 69.49221 35819 ft 481 kts 303°
2026-04-28 21:40 11.90542 69.43489 35821 ft 481 kts 303°
2026-04-28 21:41 11.94200 69.37769 35819 ft 481 kts 303°
2026-04-28 21:41 11.97858 69.32047 35820 ft 481 kts 302°
2026-04-28 21:42 12.01517 69.26319 35813 ft 481 kts 302°
2026-04-28 21:42 12.05167 69.20603 35815 ft 481 kts 302°
2026-04-28 21:43 12.08823 69.14872 35816 ft 480 kts 302°
2026-04-28 21:43 12.12473 69.09149 35816 ft 480 kts 302°
2026-04-28 21:44 12.16098 69.03460 35821 ft 480 kts 302°
2026-04-28 21:44 12.19745 68.97740 35818 ft 480 kts 302°
2026-04-28 21:45 12.23416 68.92015 35818 ft 480 kts 303°
2026-04-28 21:45 12.27078 68.86305 35817 ft 480 kts 303°
2026-04-28 21:46 12.30738 68.80590 35816 ft 481 kts 303°
2026-04-28 21:46 12.34406 68.74857 35819 ft 481 kts 303°
2026-04-28 21:47 12.38070 68.69124 35818 ft 481 kts 303°
2026-04-28 21:47 12.41733 68.63392 35822 ft 482 kts 302°
2026-04-28 21:48 12.45377 68.57684 35819 ft 482 kts 302°
2026-04-28 21:48 12.49045 68.51936 35820 ft 483 kts 302°
2026-04-28 21:49 12.52711 68.46186 35820 ft 483 kts 302°
2026-04-28 21:49 12.56390 68.40415 35824 ft 483 kts 303°
2026-04-28 21:50 12.60059 68.34654 35822 ft 483 kts 302°
2026-04-28 21:50 12.63715 68.28910 35824 ft 482 kts 302°
2026-04-28 21:51 12.67377 68.23153 35823 ft 482 kts 302°
2026-04-28 21:51 12.70442 68.18332 35823 ft 481 kts 302°
2026-04-28 21:52 12.74067 68.12626 35822 ft 480 kts 302°
2026-04-28 21:52 12.77708 68.06890 35826 ft 479 kts 302°
2026-04-28 21:53 12.81338 68.01172 35823 ft 479 kts 302°
2026-04-28 21:53 12.84982 67.95465 35826 ft 478 kts 303°
2026-04-28 21:54 12.88630 67.89769 35826 ft 477 kts 303°
2026-04-28 21:54 12.92270 67.84079 35826 ft 477 kts 302°
2026-04-28 21:55 12.95885 67.78419 35824 ft 477 kts 302°
2026-04-28 21:55 12.99515 67.72728 35826 ft 476 kts 302°
2026-04-28 21:56 13.03142 67.67040 35826 ft 476 kts 302°
2026-04-28 21:56 13.06767 67.61351 35825 ft 476 kts 302°
2026-04-28 21:57 13.10388 67.55665 35825 ft 476 kts 302°
2026-04-28 21:57 13.14009 67.49975 35829 ft 476 kts 302°
2026-04-28 21:58 13.17632 67.44278 35823 ft 476 kts 302°
2026-04-28 21:58 13.21247 67.38590 35826 ft 475 kts 302°
2026-04-28 21:59 13.24856 67.32908 35825 ft 475 kts 302°
2026-04-28 22:00 13.30250 67.24409 35822 ft 475 kts 302°
2026-04-28 22:00 13.33857 67.18721 35828 ft 475 kts 302°
2026-04-28 22:01 13.37469 67.13021 35833 ft 475 kts 302°
2026-04-28 22:01 13.41076 67.07327 35825 ft 475 kts 302°
2026-04-28 22:02 13.44675 67.01640 35825 ft 475 kts 302°
2026-04-28 22:02 13.48280 66.95941 35823 ft 475 kts 302°
2026-04-28 22:03 13.51860 66.90277 35825 ft 475 kts 302°
2026-04-28 22:03 13.55463 66.84572 35825 ft 475 kts 302°
2026-04-28 22:04 13.59061 66.78873 35832 ft 476 kts 302°
2026-04-28 22:04 13.62665 66.73160 35829 ft 476 kts 302°
2026-04-28 22:05 13.66265 66.67449 35828 ft 476 kts 302°
2026-04-28 22:05 13.69866 66.61733 35826 ft 476 kts 302°
2026-04-28 22:06 13.73466 66.56014 35825 ft 476 kts 302°
2026-04-28 22:06 13.77067 66.50291 35821 ft 476 kts 302°
2026-04-28 22:07 13.80649 66.44594 35831 ft 477 kts 302°
2026-04-28 22:07 13.84252 66.38859 35829 ft 477 kts 302°
2026-04-28 22:08 13.87851 66.33127 35826 ft 477 kts 302°
2026-04-28 22:08 13.91449 66.27392 35828 ft 477 kts 302°
2026-04-28 22:09 13.95048 66.21654 35831 ft 477 kts 302°
2026-04-28 22:09 13.98645 66.15911 35824 ft 477 kts 302°
2026-04-28 22:10 14.02241 66.10169 35828 ft 477 kts 302°
2026-04-28 22:10 14.05816 66.04455 35823 ft 477 kts 302°
2026-04-28 22:11 14.09415 65.98700 35829 ft 478 kts 302°
2026-04-28 22:11 14.13014 65.92939 35833 ft 478 kts 302°
2026-04-28 22:12 14.16617 65.87171 35827 ft 477 kts 302°
2026-04-28 22:12 14.20208 65.81415 35827 ft 477 kts 302°
2026-04-28 22:13 14.23795 65.75663 35828 ft 477 kts 302°
2026-04-28 22:13 14.27377 65.69913 35826 ft 476 kts 302°
2026-04-28 22:14 14.30955 65.64167 35831 ft 475 kts 302°
2026-04-28 22:14 14.34501 65.58468 35826 ft 475 kts 302°
2026-04-28 22:15 14.38063 65.52738 35826 ft 474 kts 302°
2026-04-28 22:15 14.41615 65.47022 35830 ft 473 kts 302°
2026-04-28 22:16 14.45166 65.41303 35830 ft 473 kts 302°
2026-04-28 22:16 14.48715 65.35582 35829 ft 473 kts 302°
2026-04-28 22:17 14.52256 65.29870 35830 ft 473 kts 302°
2026-04-28 22:17 14.55796 65.24155 35831 ft 473 kts 302°
2026-04-28 22:18 14.59321 65.18465 35830 ft 473 kts 302°
2026-04-28 22:18 14.62894 65.12753 35829 ft 473 kts 302°
2026-04-28 22:19 14.66476 65.07053 35828 ft 473 kts 302°
2026-04-28 22:19 14.70057 65.01343 35828 ft 473 kts 302°
2026-04-28 22:20 14.73636 64.95625 35831 ft 473 kts 302°
2026-04-28 22:20 14.77214 64.89901 35829 ft 473 kts 302°
2026-04-28 22:21 14.80783 64.84188 35828 ft 473 kts 302°
2026-04-28 22:21 14.84351 64.78472 35831 ft 473 kts 302°
2026-04-28 22:22 14.87901 64.72782 35830 ft 473 kts 302°
2026-04-28 22:22 14.91471 64.67056 35829 ft 473 kts 302°
2026-04-28 22:23 14.95035 64.61334 35831 ft 473 kts 302°
2026-04-28 22:23 14.98599 64.55608 35830 ft 473 kts 302°
2026-04-28 22:24 15.02160 64.49882 35832 ft 473 kts 302°
2026-04-28 22:24 15.05720 64.44155 35832 ft 473 kts 302°
2026-04-28 22:25 15.09255 64.38464 35831 ft 472 kts 302°
2026-04-28 22:25 15.12805 64.32744 35831 ft 472 kts 302°
2026-04-28 22:26 15.16350 64.27029 35831 ft 471 kts 302°
2026-04-28 22:26 15.19894 64.21310 35830 ft 471 kts 302°
2026-04-28 22:27 15.23433 64.15594 35830 ft 470 kts 302°
2026-04-28 22:27 15.26961 64.09893 35830 ft 470 kts 302°
2026-04-28 22:28 15.30484 64.04196 35829 ft 469 kts 302°
2026-04-28 22:28 15.33975 63.98546 35832 ft 469 kts 302°
2026-04-28 22:29 15.37491 63.92851 35831 ft 468 kts 302°
2026-04-28 22:29 15.40999 63.87165 35830 ft 468 kts 302°
2026-04-28 22:30 15.44502 63.81483 35828 ft 467 kts 301°
2026-04-28 22:30 15.47981 63.75835 35827 ft 467 kts 301°
2026-04-28 22:31 15.51474 63.70161 35827 ft 467 kts 301°
2026-04-28 22:31 15.54969 63.64480 35828 ft 467 kts 301°
2026-04-28 22:32 15.58461 63.58798 35829 ft 467 kts 301°
2026-04-28 22:32 15.61945 63.53124 35822 ft 467 kts 301°
2026-04-28 22:33 15.65432 63.47443 35826 ft 467 kts 301°
2026-04-28 22:33 15.68919 63.41757 35824 ft 467 kts 301°
2026-04-28 22:34 15.72405 63.36068 35825 ft 467 kts 301°
2026-04-28 22:34 15.75894 63.30370 35825 ft 468 kts 301°
2026-04-28 22:35 15.79387 63.24660 35822 ft 468 kts 301°
2026-04-28 22:35 15.82878 63.18951 35821 ft 469 kts 301°
2026-04-28 22:36 15.86348 63.13270 35818 ft 469 kts 301°
2026-04-28 22:36 15.89855 63.07526 35819 ft 470 kts 301°
2026-04-28 22:37 15.93353 63.01790 35819 ft 470 kts 301°
2026-04-28 22:37 15.96854 62.96045 35820 ft 470 kts 301°
2026-04-28 22:38 15.99763 62.91270 35816 ft 471 kts 301°
2026-04-28 22:38 16.03266 62.85514 35815 ft 471 kts 301°
2026-04-28 22:39 16.06768 62.79754 35817 ft 471 kts 301°
2026-04-28 22:39 16.10271 62.73990 35817 ft 472 kts 301°
2026-04-28 22:40 16.13776 62.68217 35815 ft 472 kts 301°
2026-04-28 22:40 16.17285 62.62432 35817 ft 472 kts 301°
2026-04-28 22:41 16.20774 62.56676 35814 ft 472 kts 301°
2026-04-28 22:41 16.24279 62.50891 35814 ft 473 kts 301°
2026-04-28 22:42 16.27781 62.45103 35814 ft 473 kts 301°
2026-04-28 22:42 16.31283 62.39313 35813 ft 472 kts 301°
2026-04-28 22:43 16.34774 62.33535 35812 ft 472 kts 301°
2026-04-28 22:43 16.38269 62.27745 35810 ft 472 kts 301°
2026-04-28 22:44 16.41761 62.21956 35814 ft 472 kts 301°
2026-04-28 22:44 16.45250 62.16169 35813 ft 472 kts 301°
2026-04-28 22:45 16.48738 62.10377 35812 ft 471 kts 301°
2026-04-28 22:45 16.52220 62.04591 35810 ft 471 kts 301°
2026-04-28 22:46 16.55697 61.98807 35807 ft 471 kts 301°
2026-04-28 22:46 16.59153 61.93054 35807 ft 471 kts 301°
2026-04-28 22:47 16.62631 61.87260 35805 ft 471 kts 301°
2026-04-28 22:47 16.66105 61.81466 35806 ft 471 kts 301°
2026-04-28 22:48 16.69582 61.75665 35804 ft 471 kts 301°
2026-04-28 22:48 16.73059 61.69861 35804 ft 471 kts 301°
2026-04-28 22:49 16.76527 61.64066 35807 ft 471 kts 301°
2026-04-28 22:49 16.79995 61.58265 35805 ft 471 kts 301°
2026-04-28 22:50 16.83463 61.52457 35803 ft 471 kts 301°
2026-04-28 22:50 16.86925 61.46655 35802 ft 471 kts 301°
2026-04-28 22:51 16.90363 61.40889 35802 ft 471 kts 301°
2026-04-28 22:51 16.93831 61.35067 35800 ft 471 kts 301°
2026-04-28 22:52 16.97292 61.29253 35798 ft 471 kts 301°
2026-04-28 22:52 17.00748 61.23441 35797 ft 470 kts 301°
2026-04-28 22:53 17.04206 61.17622 35796 ft 470 kts 301°
2026-04-28 22:53 17.07633 61.11850 35793 ft 471 kts 301°
2026-04-28 22:54 17.11084 61.06032 35795 ft 471 kts 301°
2026-04-28 22:54 17.14533 61.00212 35795 ft 471 kts 301°
2026-04-28 22:55 17.17987 60.94381 35790 ft 471 kts 301°
2026-04-28 22:55 17.21434 60.88555 35792 ft 471 kts 301°
2026-04-28 22:56 17.24864 60.82752 35790 ft 471 kts 301°
2026-04-28 22:56 17.28312 60.76915 35788 ft 472 kts 301°
2026-04-28 22:57 17.31764 60.71065 35787 ft 472 kts 301°
2026-04-28 22:57 17.35211 60.65220 35783 ft 472 kts 301°
2026-04-28 22:58 17.38660 60.59365 35781 ft 472 kts 300°
2026-04-28 22:58 17.42109 60.53506 35782 ft 473 kts 300°
2026-04-28 22:59 17.45556 60.47645 35783 ft 473 kts 300°
2026-04-28 22:59 17.49000 60.41782 35782 ft 473 kts 300°
2026-04-28 23:00 17.52447 60.35912 35782 ft 472 kts 300°
2026-04-28 23:00 17.55867 60.30080 35780 ft 472 kts 300°